[[{"header":{"parameterUnit":"m.s-1","parameterCategory":1,"la1":30.2991,"la2":30.254,"lo1":-89.0895,"lo2":-89.0444,"dy":0.0017,"dx":0.0017,"nx":28,"ny":28,"refTime":"2024-03-30T21:00:00:Z","depth":0,"parameterNumber":2,"parameterNumberName":"U-component_of_WINDS"},"data":[0,0,0,0,0,0,0,0,0,0,0,0,0,0,0,0,0,0,0,0,0,0,0,0,0,0,0,0,0,0,0,0,0,0,0,0,0,0,0,0,0,0,0,0,0,0,0,0,0,0,0,0,0,0,0,0,0,0,-2.2589,-2.2589,0,-2.2627,-2.2627,-2.2627,-2.2594,-2.2592,-2.2591,-2.259,-2.2625,-2.2627,-2.263,0,0,0,0,0,0,0,0,0,0,0,0,0,-2.2483,-2.2485,-2.2588,-2.2589,-2.2589,-2.2626,-2.2627,-2.2627,-2.2594,-2.2592,-2.2591,-2.2589,-2.2625,-2.2627,-2.263,0,0,0,0,0,0,0,0,0,0,0,0,0,-2.2526,-2.2486,-2.2588,-2.2577,-2.2577,-2.2626,-2.2627,-2.2628,-2.2594,-2.2592,-2.259,-2.2588,-2.2624,-2.2627,-2.263,-2.2692,0,0,-2.264,-2.2642,0,0,0,0,0,0,0,0,-2.2523,-2.2529,-2.2578,-2.2578,-2.2578,-2.2603,-2.2603,-2.2649,-2.2595,-2.2588,-2.259,-2.2587,-2.2619,-2.2623,-2.2635,-2.2694,-2.2695,-2.2641,-2.2643,-2.2644,-2.2645,0,0,0,0,0,0,0,-2.252,-2.2528,-2.2603,-2.2579,-2.2579,-2.2569,-2.2573,-2.2611,-2.2614,-2.2588,-2.2586,-2.2591,-2.2619,-2.2631,-2.2635,-2.2696,-2.2641,-2.2644,-2.2646,-2.2647,-2.2805,-2.2807,0,0,0,0,0,0,-2.2519,-2.2525,-2.2602,-2.2605,-2.2545,-2.2573,-2.2577,-2.2597,-2.2614,-2.2615,-2.2593,-2.2589,-2.2627,-2.2631,-2.2636,-2.2708,-2.2644,-2.2647,-2.2649,-2.2803,-2.2805,-2.2808,0,0,0,0,0,0,-2.2517,-2.2526,-2.2601,-2.2564,-2.2573,-2.2577,-2.26,-2.2599,-2.2611,-2.2617,-2.2617,-2.2605,-2.2625,-2.2632,-2.2678,-2.2708,-2.2649,-2.2652,-2.28,-2.2804,-2.2807,-2.2852,0,0,0,0,0,0,-2.2514,-2.2526,-2.255,-2.2565,-2.2575,-2.2643,-2.2602,-2.2601,-2.2618,-2.2614,-2.2629,-2.263,-2.2624,-2.2673,-2.2681,-2.2712,-2.2654,-2.2797,-2.2802,-2.2806,-2.2848,-2.2857,-2.2864,0,0,0,0,0,-2.251,-2.2561,-2.2551,-2.2561,-2.2606,-2.2645,-2.265,-2.2644,-2.262,-2.2644,-2.2648,-2.2629,-2.2704,-2.2678,-2.2687,-2.2719,-2.2795,-2.28,-2.2805,-2.2844,-2.2855,-2.2864,0,0,0,0,0,0,-2.2548,-2.2563,-2.2552,-2.261,-2.2627,-2.2639,-2.2669,-2.2656,-2.2679,-2.2674,-2.2664,-2.2667,-2.2716,-2.2723,-2.2693,-2.2779,-2.2746,-2.2753,-2.2773,-2.2783,-2.2791,-2.2787,-2.2657,0,0,0,0,0,-2.2563,-2.2595,-2.2606,-2.2655,-2.2664,-2.2665,-2.2682,-2.2676,-2.2692,-2.2699,-2.2706,-2.2721,-2.2748,-2.2766,-2.2792,-2.2849,-2.2851,-2.2876,-2.2884,-2.2891,-2.2896,-2.2925,-2.2935,-2.2824,-2.2824,-2.2824,0,0,-2.2595,-2.2607,-2.2627,-2.2663,-2.2675,-2.2707,-2.2671,-2.2707,-2.2729,-2.2704,-2.2748,-2.2754,-2.277,-2.2822,-2.2846,-2.2829,-2.2927,-2.2897,-2.2902,-2.2904,-2.2931,-2.2942,-2.2951,-2.2827,-2.2827,-2.2826,0,0,-2.2667,-2.2681,-2.2722,-2.2736,-2.2755,-2.2755,-2.2765,-2.278,-2.2783,-2.2828,-2.2809,-2.2835,-2.2882,-2.2895,-2.2907,-2.2984,-2.2967,-2.2993,-2.3034,-2.3062,-2.3071,-2.3079,-2.3104,-2.3113,-2.2999,-2.2999,-2.2999,0,-2.2703,-2.2751,-2.2745,-2.2782,-2.2797,-2.2777,-2.2818,-2.2831,-2.2857,-2.2867,-2.2849,-2.2907,-2.2917,-2.2971,-2.2989,-2.3001,-2.3011,-2.299,-2.3071,-2.3078,-2.3085,-2.3109,-2.3119,-2.3001,-2.3001,-2.3001,-2.3001,0,-2.2793,-2.2827,-2.2858,-2.2884,-2.2904,-2.2942,-2.2941,-2.2961,-2.2953,-2.2955,-2.2999,-2.3011,-2.3037,-2.305,-2.3043,-2.3102,-2.3091,-2.3072,-2.3038,-2.3099,-2.3121,-2.313,-2.3005,-2.3004,-2.3004,-2.3003,0,0,-2.2889,-2.2912,-2.2924,-2.2935,-2.2955,-2.298,-2.3017,-2.3044,-2.306,-2.3079,-2.3108,-2.3149,-2.3131,-2.3145,-2.3139,-2.3164,-2.3222,-2.3141,-2.3142,-2.3154,-2.3286,-2.3298,-2.3309,-2.3212,-2.3213,-2.3215,-2.3283,0,-2.2961,-2.3026,-2.3022,-2.3083,-2.3112,-2.3094,-2.3126,-2.314,-2.3143,-2.3168,-2.317,-2.3198,-2.3174,-2.3182,-2.3207,-2.321,-2.3248,-2.3205,-2.3237,-2.3238,-2.3231,-2.3321,-2.3334,-2.3398,-2.3292,-2.3294,-2.3295,0,-2.3053,-2.3075,-2.314,-2.3154,-2.3166,-2.3195,-2.3218,-2.3243,-2.3259,-2.3259,-2.3275,-2.3264,-2.33,-2.3267,-2.3315,-2.3286,-2.3299,-2.3302,-2.3305,-2.3305,-2.3268,-2.3322,-2.3419,-2.3428,-2.3309,-2.3308,-2.3307,0,-2.3114,-2.316,-2.3204,-2.3214,-2.3233,-2.3253,-2.3262,-2.3276,-2.3292,-2.3312,-2.3322,-2.3346,-2.3359,-2.3377,-2.3373,-2.335,-2.3421,-2.3388,-2.342,-2.342,-2.3434,-2.3433,-2.3532,-2.3447,-2.3446,-2.3446,-2.3446,0,-2.3193,-2.3232,-2.3231,-2.3258,-2.3301,-2.3295,-2.3338,-2.3343,-2.3356,-2.3382,-2.3368,-2.3393,-2.3387,-2.3411,-2.3408,-2.3446,-2.3453,-2.3453,-2.3451,-2.3452,-2.3452,-2.3459,-2.3453,-2.3449,-2.3448,-2.3448,-2.3447,0,-2.3267,-2.3268,-2.3314,-2.3328,-2.3333,-2.3363,-2.3374,-2.3399,-2.3401,-2.3434,-2.3442,-2.3444,-2.3472,-2.347,-2.3501,-2.3499,-2.3546,-2.354,-2.3541,-2.3539,-2.3569,-2.3566,-2.3675,-2.3688,-2.3596,-2.3597,-2.3598,0,-2.3316,-2.3346,-2.3363,-2.338,-2.339,-2.3418,-2.3434,-2.3429,-2.3447,-2.3467,-2.3488,-2.3515,-2.3536,-2.358,-2.3584,-2.3607,-2.36,-2.3637,-2.3604,-2.3604,-2.3598,-2.3595,-2.3597,-2.3643,-2.3644,-2.3645,-2.3645,0,-2.3402,-2.3401,-2.3426,-2.3451,-2.3471,-2.349,-2.3507,-2.3522,-2.3519,-2.3539,-2.3567,-2.3584,-2.3615,-2.3641,-2.3663,-2.367,-2.3657,-2.3656,-2.3664,-2.3665,-2.3663,-2.3662,-2.3556,-2.3653,-2.3652,-2.3652,-2.3651,-2.3651,-2.3463,-2.3488,-2.3504,-2.3531,-2.3544,-2.3561,-2.3584,-2.3589,-2.3613,-2.3639,-2.3635,-2.3666,-2.368,-2.3709,-2.3718,-2.3741,-2.3728,-2.374,-2.3743,-2.3745,-2.3748,-2.3662,-2.3746,-2.3746,-2.3745,-2.3745,-2.3745,0,-2.3546,-2.3556,-2.3581,-2.3606,-2.3627,-2.3615,-2.3633,-2.3651,-2.3679,-2.3694,-2.3715,-2.3747,-2.3772,-2.3778,-2.3801,-2.3819,-2.3813,-2.3825,-2.3822,-2.3823,-2.376,-2.3749,-2.3829,-2.3829,-2.3829,-2.3829,-2.3829,-2.3829,-2.3592,-2.3633,-2.3634,-2.368,-2.3689,-2.372,-2.3731,-2.3746,-2.3757,-2.3794,-2.3815,-2.3819,-2.383,-2.3854,-2.3875,-2.3877,-2.3885,-2.3898,-2.3897,-2.3837,-2.3828,-2.382,-2.381,-2.3901,-2.3901,-2.3958,-2.3958,-2.3959]},{"header":{"parameterUnit":"m.s-1","parameterCategory":1,"la1":30.2991,"la2":30.254,"lo1":-89.0895,"lo2":-89.0444,"dy":0.0017,"dx":0.0017,"nx":28,"ny":28,"refTime":"2024-03-30T21:00:00:Z","depth":0,"parameterNumber":3,"parameterNumberName":"V-component_of_WINDS"},"data":[0,0,0,0,0,0,0,0,0,0,0,0,0,0,0,0,0,0,0,0,0,0,0,0,0,0,0,0,0,0,0,0,0,0,0,0,0,0,0,0,0,0,0,0,0,0,0,0,0,0,0,0,0,0,0,0,0,0,3.517,3.517,0,3.5191,3.5191,3.5192,3.5249,3.5251,3.5252,3.5253,3.5272,3.5272,3.5271,0,0,0,0,0,0,0,0,0,0,0,0,0,3.518,3.5179,3.517,3.517,3.5171,3.5191,3.5192,3.5192,3.5249,3.5251,3.5252,3.5254,3.5273,3.5272,3.5271,0,0,0,0,0,0,0,0,0,0,0,0,0,3.5186,3.5179,3.517,3.5202,3.5205,3.5191,3.5192,3.5192,3.5249,3.5251,3.5253,3.5254,3.5273,3.5272,3.5271,3.5228,0,0,3.5268,3.5268,0,0,0,0,0,0,0,0,3.5185,3.5185,3.5197,3.52,3.5203,3.522,3.5202,3.5204,3.5248,3.5232,3.5253,3.5255,3.5253,3.5254,3.5254,3.5228,3.5229,3.5268,3.5267,3.5267,3.5267,0,0,0,0,0,0,0,3.5185,3.5185,3.5178,3.5197,3.5201,3.5215,3.5218,3.5203,3.5232,3.5234,3.5238,3.524,3.5255,3.5255,3.5255,3.523,3.5268,3.5267,3.5267,3.5266,3.5174,3.5172,0,0,0,0,0,0,3.518,3.5184,3.5178,3.5179,3.5199,3.5213,3.5217,3.5212,3.5232,3.5237,3.5238,3.5242,3.5255,3.5256,3.5256,3.5209,3.5267,3.5266,3.5266,3.5175,3.5173,3.5171,0,0,0,0,0,0,3.518,3.5179,3.5177,3.5183,3.5184,3.5211,3.5206,3.5212,3.5211,3.5236,3.5241,3.5232,3.5257,3.5257,3.5235,3.521,3.5266,3.5265,3.5178,3.5175,3.5172,3.5113,0,0,0,0,0,0,3.518,3.5178,3.5162,3.5182,3.5183,3.5156,3.5204,3.5211,3.521,3.5215,3.5231,3.5236,3.5258,3.5236,3.5234,3.521,3.5264,3.518,3.5176,3.5173,3.5117,3.5108,3.5101,0,0,0,0,0,3.518,3.5143,3.5161,3.516,3.5163,3.5154,3.5155,3.5182,3.5207,3.5192,3.5208,3.5235,3.5213,3.5234,3.5232,3.5206,3.5182,3.5177,3.5173,3.5121,3.511,3.5101,0,0,0,0,0,0,3.5118,3.5146,3.5166,3.5134,3.5142,3.5164,3.5144,3.5169,3.5169,3.5174,3.5207,3.5211,3.5185,3.5193,3.5216,3.5167,3.5202,3.5197,3.5163,3.5153,3.5145,3.5144,3.5263,0,0,0,0,0,3.5101,3.5091,3.5116,3.5086,3.5089,3.5116,3.5113,3.5134,3.5142,3.5145,3.516,3.5167,3.5162,3.5158,3.5154,3.5118,3.5124,3.5101,3.5092,3.5085,3.5081,3.5066,3.5057,3.5157,3.5157,3.5157,0,0,3.5064,3.5079,3.5071,3.5074,3.5082,3.5073,3.5118,3.5105,3.5098,3.5143,3.5125,3.5135,3.5145,3.5118,3.5106,3.5124,3.5055,3.508,3.5074,3.5074,3.5061,3.5051,3.5043,3.5154,3.5155,3.5155,0,0,3.4994,3.5003,3.4981,3.4989,3.5001,3.502,3.5014,3.5034,3.5043,3.5025,3.506,3.5052,3.5042,3.5049,3.5051,3.4987,3.5013,3.4984,3.4942,3.4927,3.4919,3.4912,3.4891,3.4883,3.498,3.498,3.4979,0,3.4948,3.4935,3.4966,3.4952,3.4953,3.4995,3.4973,3.4979,3.4989,3.4989,3.5009,3.5,3.5009,3.4985,3.497,3.4969,3.4965,3.4983,3.4917,3.4911,3.4905,3.4886,3.4878,3.4976,3.4977,3.4977,3.4977,0,3.4878,3.4869,3.4849,3.486,3.4859,3.4841,3.487,3.4865,3.4887,3.4904,3.4886,3.4899,3.4901,3.4896,3.4916,3.4876,3.4887,3.4911,3.4947,3.4892,3.4874,3.4867,3.4971,3.4973,3.4974,3.4974,0,0,3.4768,3.4799,3.4791,3.4798,3.4816,3.481,3.4794,3.4797,3.4794,3.4799,3.4789,3.478,3.4805,3.4807,3.4828,3.4815,3.4766,3.4842,3.4843,3.4829,3.4726,3.4708,3.4699,3.4784,3.4782,3.4781,3.4726,0,3.4704,3.468,3.4709,3.4679,3.4673,3.4713,3.4701,3.471,3.4726,3.4723,3.474,3.4735,3.4766,3.4768,3.4757,3.4775,3.4746,3.4779,3.4775,3.4775,3.4773,3.469,3.467,3.4617,3.4719,3.4718,3.4717,0,3.4625,3.463,3.46,3.4624,3.4622,3.4609,3.4616,3.4612,3.4625,3.4638,3.4642,3.4668,3.4656,3.469,3.4674,3.4696,3.4696,3.4705,3.4704,3.4705,3.4743,3.4691,3.46,3.4593,3.4706,3.4707,3.4708,0,3.4551,3.455,3.4533,3.4537,3.4563,3.4554,3.4564,3.4579,3.458,3.4585,3.4587,3.459,3.4592,3.4594,3.4621,3.4643,3.4603,3.4639,3.4615,3.4614,3.4605,3.4605,3.4515,3.4602,3.4602,3.4602,3.4602,0,3.4478,3.4458,3.4501,3.449,3.447,3.4504,3.4483,3.4498,3.4511,3.4505,3.454,3.4533,3.4568,3.4566,3.4587,3.4572,3.4572,3.4583,3.4589,3.4581,3.458,3.4582,3.4587,3.46,3.4601,3.4601,3.4601,0,3.4391,3.4419,3.4403,3.443,3.4436,3.4421,3.4444,3.4436,3.4455,3.4447,3.4447,3.4476,3.4475,3.4503,3.4506,3.4521,3.4497,3.4509,3.4493,3.4498,3.4473,3.4476,3.4382,3.4373,3.4464,3.4463,3.4462,0,3.4343,3.433,3.4356,3.4355,3.4364,3.4361,3.4363,3.4396,3.4397,3.4413,3.4403,3.4405,3.4409,3.4406,3.4428,3.4431,3.4445,3.4412,3.4445,3.4439,3.4447,3.4448,3.4448,3.4405,3.4404,3.4403,3.4402,0,3.4256,3.4271,3.4273,3.428,3.4282,3.4288,3.4297,3.4295,3.4331,3.433,3.4331,3.4333,3.4339,3.4342,3.435,3.4361,3.4388,3.4391,3.4386,3.4379,3.4371,3.4377,3.4476,3.4394,3.4394,3.4395,3.4395,3.4396,3.4189,3.418,3.4198,3.42,3.4211,3.4219,3.4214,3.4233,3.4235,3.4243,3.4262,3.426,3.4276,3.429,3.4299,3.4298,3.4315,3.4306,3.4305,3.4303,3.4299,3.437,3.4299,3.43,3.43,3.43,3.43,0,3.4105,3.412,3.4121,3.4134,3.4136,3.4162,3.4174,3.4174,3.4172,3.4185,3.4189,3.4191,3.4194,3.4217,3.4223,3.4218,3.4231,3.4219,3.422,3.4223,3.4283,3.4288,3.4209,3.4209,3.4209,3.4209,3.4209,3.4209,3.4062,3.405,3.4067,3.4061,3.4076,3.4075,3.408,3.4089,3.41,3.4101,3.4104,3.412,3.4137,3.4146,3.415,3.4157,3.4159,3.4143,3.4154,3.4209,3.4218,3.4227,3.4232,3.4142,3.4142,3.4094,3.4094,3.4094]}]]